Location: Rock Falls
(43.2075°N, 93.0846°W)
Time: 21:17:38
(UTC+00:00)

Daily predictions for brighter satellites

Satellite Brightness Start Highest point End
(mag) Time Altitude Azimuth Time Altitude Azimuth Time Altitude Azimuth
Cosmos 2237 Rocket 2.6 12:00:26 10° SSW 12:06:01 67° ESE 12:11:39 10° NNE
Cosmos 1933 4.0 12:06:17 23° NW 12:07:53 32° W 12:11:24 10° SSW
ERS-2 1.4 12:05:44 10° NNE 12:08:40 89° E 12:11:35 10° SSW
ATLAS 3B R/B 4.0 12:05:56 18° WNW 12:08:49 23° NNW 12:14:37 10° NNE
CZ-4C R/B 4.0 12:02:59 10° NNW 12:09:34 40° NE 12:17:22 10° ESE
SAR-Lupe-2 3.9 12:06:12 10° NNE 12:09:47 67° ESE 12:13:20 10° S
PSLV R/B 3.5 12:07:35 10° N 12:11:51 62° WNW 12:16:03 10° SSW
Cosmos 2322 4.2 12:10:01 10° WSW 12:15:11 35° NW 12:20:23 10° N
Cosmos 1862 3.5 12:12:17 10° SSW 12:15:56 41° WNW 12:19:37 10° N
COSMO-SKYMED 1 3.5 12:12:14 10° SSW 12:15:57 28° W 12:18:43 15° NW
Cosmos 2151 2.8 12:11:51 10° SSW 12:16:01 76° W 12:20:15 10° N
Meteor 2-3 Rocket 4.3 12:11:31 10° SW 12:16:32 34° WNW 12:21:35 10° N
SeaSat 1 4.0 12:13:23 10° ESE 12:17:43 32° NE 12:22:04 10° N
USA 215 3.2 12:14:04 10° NE 12:20:37 83° NW 12:27:08 10° SW
Meteor 1-31 Rocket 4.0 12:17:28 10° NNE 12:21:07 45° E 12:24:47 10° S
SJ-7 4.4 12:19:36 10° NNE 12:23:43 86° WNW 12:27:48 10° SSW
BlueWalker 3 3.9 12:25:35 12° WSW 12:27:03 14° SW 12:29:11 10° SSW
SMAP 3.3 12:29:36 10° NNE 12:34:17 77° ESE 12:38:56 10° S
Cosmos 1842 Rocket 3.6 12:31:40 10° NNW 12:36:03 61° W 12:40:25 10° S
H-2A R/B 3.4 12:36:36 10° NNW 12:39:26 16° WNW 12:42:18 10° W
Helios 1B rocket 2.7 12:38:21 10° N 12:42:08 42° WNW 12:45:53 10° SW
CENTAUR R/B 3.5 12:34:44 10° NW 12:43:06 76° NE 12:52:20 10° SE
Cosmos 2219 Rocket 3.7 12:40:16 10° W 12:43:47 16° NW 12:47:19 10° N
Cosmos 1437 Rocket 3.2 12:41:09 10° SW 12:44:34 35° WNW 12:47:59 10° N
CZ-4B R/B 3.9 12:40:52 10° NNE 12:44:52 89° ENE 12:49:00 10° SSW
DELTA 2 DEB (DPAF) 4.5 12:47:14 10° S 12:51:18 42° W 12:55:25 10° NNW
USA 267 3.4 12:47:50 10° ESE 12:54:22 76° NE 13:00:55 10° NW
Cosmos 1302 Rocket 4.1 12:49:53 10° NNW 12:55:01 62° WSW 13:00:09 10° S
Cosmos 1943 Rocket 2.2 12:49:38 10° NNW 12:55:13 87° WSW 13:00:42 10° SSE
Cosmos 1461 3.3 12:52:07 10° SSW 12:56:35 78° ESE 13:00:59 10° NE
SL-16 R/B 3.0 12:56:45 10° S 13:02:19 59° ESE 13:07:54 10° NNE
NOSS 3-4 (A) 4.2 22:53:06 10° NW 23:00:12 80° WSW 23:08:20 10° SSE
NOSS 3-4 (C) 4.2 22:53:16 10° NW 23:00:18 80° WSW 23:08:19 10° SSE
PSLV R/B 3.8 22:59:48 10° S 23:04:01 74° WSW 23:08:19 10° NNW
CORIOLIS 4.5 23:00:32 10° SE 23:05:34 44° ENE 23:10:38 10° N
USA 234 3.9 23:00:57 10° ENE 23:07:04 41° SE 23:13:09 10° SSW
Cosmos 1140 Rocket 4.1 23:04:06 10° N 23:08:49 34° ENE 23:13:29 10° SE
Cosmos 1076 Rocket 3.5 23:05:19 10° N 23:09:41 74° E 23:14:00 10° SSE
SJ-7 4.3 23:06:27 10° SSE 23:10:22 64° ENE 23:14:22 10° N
Cosmos 2227 Rocket 3.7 23:05:48 10° WSW 23:10:50 33° NW 23:15:56 10° N
Cosmos 1602 4.1 23:09:00 10° N 23:12:32 40° ENE 23:16:04 10° SSE
Nadezhda 4 Rocket 4.2 23:11:26 10° SSE 23:17:18 49° E 23:23:10 10° NNE
ARGOS 4.3 23:12:48 10° S 23:18:03 50° W 23:23:20 10° NNW
Cosmos 1782 4.2 23:17:53 10° SE 23:20:36 18° E 23:23:21 10° NE
Cosmos 1500 3.1 23:18:38 10° N 23:22:11 83° W 23:25:42 10° S
DMSP B5D2-2 4.1 23:18:29 10° NNE 23:23:43 79° ESE 23:28:56 10° S
Cosmos 1603 4.1 23:21:16 10° NNW 23:26:35 39° ENE 23:31:49 10° SE
SL-8 R/B 3.7 23:22:05 10° WNW 23:26:53 76° NNE 23:31:40 10° ESE
Helios 1B rocket 3.0 23:24:05 10° S 23:27:57 58° WSW 23:31:52 10° NNW
Cosmos 1812 Rocket 4.0 23:24:31 10° SSE 23:28:33 39° E 23:32:38 10° NNE
Helios 1A 3.8 23:25:20 10° NE 23:29:03 31° E 23:32:44 10° SSE
ISS -3.3 23:27:18 10° WNW 23:30:37 65° SW 23:33:56 10° SE
CZ-4B R/B 3.6 23:27:24 10° SSE 23:30:53 56° ENE 23:34:28 10° N
CZ-4B R/B 3.8 23:32:27 10° SE 23:37:10 41° ENE 23:41:47 10° N
SMAP 3.0 23:33:28 10° SSE 23:38:08 86° ENE 23:42:49 10° NNW
SL-16 R/B 3.9 23:34:15 10° NW 23:39:26 37° WSW 23:44:34 10° S
NOAA 6 4.4 23:42:27 10° SE 23:47:12 40° ENE 23:51:57 10° N
Cosmos 1943 3.1 23:44:40 10° NNW 23:50:20 82° ENE 23:55:59 10° SSE
USA 276 3.0 23:48:23 10° WNW 23:50:29 25° NNW 23:51:20 20° NNE
APEX 2.8 23:51:45 10° SW 23:54:46 64° WNW 23:56:41 18° NNE
